Simultaneous Nadir Overpasses (SNOs) Predictions

Prediction of SNOs between GOES-15 and FY3D Satellite Orbit:

Table of predicted SNOs for the next 14.0 days since TLE Epoch: 2/19/2022
Index Date Time (GOES-15) GOES-15 Lat,Lon FY3D Lat,Lon Distance(km) Time Diff (sec)
1 02/19/2022 10:31:13 0.01,-127.87 0.69,-131.02 358.66 80
2 02/20/2022 10:10:09 0.01,-127.83 -0.28,-126.56 144.94 80
3 02/21/2022 22:32:38 -0.01,-127.80 -0.98,-131.98 476.83 80
4 02/22/2022 22:16:55 -0.01,-127.76 0.05,-127.53 26.54 80
5 02/25/2022 10:20:53 0.01,-127.65 0.19,-128.47 93.08 80
6 02/26/2022 09:59:50 0.01,-127.61 -0.78,-124.01 409.38 80
7 02/27/2022 22:22:19 -0.02,-127.55 -0.41,-129.44 214.26 80
8 02/28/2022 22:06:35 -0.02,-127.51 0.56,-124.98 288.38 80
9 03/02/2022 10:28:56 0.02,-127.44 0.70,-130.36 334.18 80
10 03/03/2022 10:07:53 0.02,-127.39 -0.33,-125.92 168.22 80
11 03/04/2022 22:30:22 -0.02,-127.33 -0.93,-131.33 455.91 80
